Stations météo

Publicité
Lyon/Satolas, France (7481): Température de l'air & dewpoint: 15.10.2019 07:00:00 - 21.10.2019 07:00:00 (CEST)Lyon/Satolas, France (7481): Température de l'air 5cm: 15.10.2019 07:00:00 - 21.10.2019 07:00:00 (CEST)Lyon/Satolas, France (7481): Température de l'air -20cm & Température de l'air -100cm: 15.10.2019 07:00:00 - 21.10.2019 07:00:00 (CEST)Lyon/Satolas, France (7481): Vitesse du vent & gusts: 15.10.2019 07:00:00 - 21.10.2019 07:00:00 (CEST)Lyon/Satolas, France (7481): Direction du vent: 15.10.2019 07:00:00 - 21.10.2019 07:00:00 (CEST)Lyon/Satolas, France (7481): reduced air pressure: 15.10.2019 07:00:00 - 21.10.2019 07:00:00 (CEST)Lyon/Satolas, France (7481): visibility: 15.10.2019 07:00:00 - 21.10.2019 07:00:00 (CEST)Lyon/Satolas, France (7481): Quantités de précipitations: 15.10.2019 07:00:00 - 21.10.2019 07:00:00 (CEST)
Date & Time tt [°C] td [°C] tt 5cm [°C] tt -20cm [°C] tt -100cm [°C] ff [km/h] ff [knt] fx [km/h] fx [knt] dd ppp [hPa] vv [km] rr [mm]
21.10.2019 07:00:00 - - - - - - - - - - - - -
21.10.2019 06:00:00 14,1 10,7 13,6 15,9 17,4 3 2 13 7 W 1015,3 50 0,0
21.10.2019 05:00:00 14,2 12,4 13,6 15,9 17,4 6 4 10 5 WNW 1014,8 50 0,0
21.10.2019 04:00:00 14,3 11,8 14,0 15,9 17,4 6 4 22 12 WSW 1014,3 50 0,0
21.10.2019 03:00:00 14,3 13,8 13,8 16,0 17,4 7 4 20 11 SSW 1013,9 50 0,0
21.10.2019 02:00:00 14,2 13,7 13,9 16,0 17,4 10 5 26 14 SW 1012,8 50 0,0
21.10.2019 01:00:00 14,4 13,8 13,8 16,1 17,4 5 3 16 9 ESE 1011,7 50 0,0
21.10.2019 00:00:00 14,1 13,6 13,8 16,1 17,4 10 5 19 10 ESE 1011,2 30 3,8
20.10.2019 23:00:00 14,3 13,5 13,8 16,2 17,4 12 7 21 11 SE 1011,0 15 0,8
20.10.2019 22:00:00 14,2 13,4 13,7 16,3 17,4 12 6 20 11 ESE 1010,3 10 3,4
20.10.2019 21:00:00 14,3 13,5 13,7 16,4 17,4 12 7 32 17 W 1008,7 6 7,5
20.10.2019 20:00:00 14,4 13,3 13,5 16,5 17,4 30 16 85 46 WSW 1009,5 3,0 5,0
20.10.2019 19:00:00 23,5 10,5 20,1 16,5 17,4 23 12 48 26 S 1003,5 40 0,0
20.10.2019 18:00:00 21,8 12,9 20,7 16,5 17,4 12 7 40 22 S 1003,7 47 0,0
20.10.2019 17:00:00 23,1 12,1 21,5 16,4 17,4 26 14 47 25 SSW 1003,5 40 0,0
20.10.2019 16:00:00 24,0 11,3 23,2 16,3 17,4 14 7 27 15 S 1002,8 45 0,0
20.10.2019 15:00:00 23,3 12,3 21,9 16,2 17,4 11 6 23 12 S 1003,5 45 0,0
20.10.2019 14:00:00 22,1 12,1 21,6 16,1 17,4 8 4 35 19 SSW 1004,3 45 0,0
20.10.2019 13:00:00 23,3 11,0 22,4 16,0 17,4 28 15 50 27 S 1004,9 33 0,0
20.10.2019 12:00:00 22,4 11,2 18,6 15,9 17,4 17 9 37 20 S 1005,1 35 0,0
20.10.2019 11:00:00 17,4 13,1 17,1 15,8 17,4 6 4 15 8 ENE 1005,2 50 0,0
20.10.2019 10:00:00 16,5 12,8 15,6 15,8 17,4 4 2 7 4 ENE 1005,4 50 0,0
20.10.2019 09:00:00 16,3 11,4 13,3 15,9 17,4 4 2 13 7 NE 1005,4 50 0,0
20.10.2019 08:00:00 16,5 11,2 13,6 15,9 17,4 9 5 14 8 SSE 1005,0 50 0,0
20.10.2019 07:00:00 17,7 10,6 15,3 16,0 17,4 2 1 13 7 NW 1005,1 50 0,0
20.10.2019 06:00:00 18,8 10,4 16,1 16,0 17,4 4 2 29 16 SSE 1005,4 50 0,0
20.10.2019 05:00:00 18,3 11,4 12,8 16,1 17,4 9 5 18 10 ESE 1005,3 40 0,0
20.10.2019 04:00:00 16,1 12,6 13,3 16,2 17,4 8 4 19 11 SE 1006,0 40 0,0
20.10.2019 03:00:00 17,9 13,0 16,0 16,3 17,4 12 6 40 22 SE 1006,0 40 0,0
20.10.2019 02:00:00 18,7 13,5 13,7 16,4 17,4 27 14 49 26 S 1005,5 40 0,0
20.10.2019 01:00:00 17,2 13,9 15,9 16,4 17,4 7 4 16 9 ESE 1006,1 40 0,0
20.10.2019 00:00:00 18,2 14,3 17,2 16,5 17,4 8 4 25 14 E 1006,2 40 0,0
19.10.2019 23:00:00 18,2 14,7 17,2 16,5 17,4 13 7 31 17 E 1006,3 40 0,0
19.10.2019 22:00:00 17,8 14,9 16,7 16,5 17,4 12 6 25 13 E 1006,5 35 0,0
19.10.2019 21:00:00 18,0 15,1 16,9 16,5 17,4 9 5 34 18 SE 1006,6 35 0,0
19.10.2019 20:00:00 18,4 14,9 16,8 16,6 17,4 16 9 48 26 SSE 1006,2 20 0,2
19.10.2019 19:00:00 18,3 14,6 16,1 16,6 17,4 35 19 62 33 S 1005,9 20 0,6
19.10.2019 18:00:00 19,6 14,6 16,6 16,6 17,4 37 20 61 33 S 1006,0 40 0,0
19.10.2019 17:00:00 17,3 15,8 16,8 16,5 17,4 19 11 29 16 SE 1006,3 12 0,2
19.10.2019 16:00:00 17,8 16,7 16,8 16,4 17,4 14 7 22 12 SSE 1006,1 20 5,0
19.10.2019 15:00:00 17,8 16,3 17,1 16,2 17,4 6 3 17 9 ESE 1006,4 10 0,4
19.10.2019 14:00:00 18,3 15,9 16,2 16,0 17,4 10 5 39 21 SSE 1006,7 30 4,1
19.10.2019 13:00:00 18,3 16,1 16,2 15,8 17,4 10 5 18 10 SE 1007,8 20 0,0
19.10.2019 12:00:00 16,7 15,4 16,2 15,7 17,4 13 7 23 12 SE 1008,4 8 1,2
19.10.2019 11:00:00 16,8 15,1 16,8 15,6 17,5 8 5 20 11 SE 1008,9 30 0,0
19.10.2019 10:00:00 16,5 15,0 16,0 15,6 17,4 9 5 25 14 ESE 1009,2 30 0,0
19.10.2019 09:00:00 16,5 14,5 14,7 15,6 17,5 13 7 29 16 SE 1009,2 30 0,2
19.10.2019 08:00:00 15,6 14,3 14,5 15,6 17,5 9 5 19 10 SSW 1009,3 15 0,4
19.10.2019 07:00:00 15,6 14,1 14,8 15,6 17,5 10 5 28 15 ESE 1009,4 30 0,0
19.10.2019 06:00:00 16,1 14,1 14,8 15,6 17,4 9 5 23 13 SE 1009,4 12 0,8
19.10.2019 05:00:00 16,6 13,7 15,6 15,7 17,5 15 8 37 20 S 1009,7 40 0,0
19.10.2019 04:00:00 16,7 13,8 15,7 15,7 17,5 18 10 34 18 SSW 1010,0 35 0,0
19.10.2019 03:00:00 16,5 13,8 15,4 15,7 17,5 10 5 24 13 SSE 1010,5 30 0,0
19.10.2019 02:00:00 16,3 14,0 14,3 15,7 17,5 6 3 13 7 SSE 1010,8 30 0,0
19.10.2019 01:00:00 16,2 14,0 14,5 15,7 17,5 9 5 23 13 S 1010,8 25 0,0
19.10.2019 00:00:00 15,7 14,7 14,4 15,8 17,5 5 3 10 5 S 1011,5 12 0,0
18.10.2019 23:00:00 15,7 14,4 15,1 15,8 17,5 7 4 14 8 W 1012,3 10 0,0
18.10.2019 22:00:00 16,4 14,4 15,2 15,8 17,5 5 3 13 7 SE 1012,3 25 0,0
18.10.2019 21:00:00 16,4 14,6 14,1 15,8 17,5 4 2 9 5 S 1012,8 25 0,0
18.10.2019 20:00:00 16,1 14,5 14,5 15,9 17,5 4 2 6 3 SSE 1012,9 22 0,0
18.10.2019 19:00:00 16,3 14,3 14,9 15,9 17,5 3 1 19 10 E 1012,8 30 0,2
18.10.2019 18:00:00 16,8 14,3 15,5 15,8 17,5 9 5 23 13 S 1013,0 4,0 0,4
18.10.2019 17:00:00 17,3 14,0 16,5 15,7 17,5 15 8 25 13 S 1013,2 30 0,0
18.10.2019 16:00:00 17,1 14,4 16,2 15,6 17,5 14 8 41 22 SSW 1013,6 40 0,4
18.10.2019 15:00:00 17,6 13,7 16,7 15,6 17,6 27 15 51 28 SSW 1013,8 30 0,0
18.10.2019 14:00:00 18,6 12,3 18,8 15,5 17,5 27 15 47 25 SSW 1013,6 40 0,0
18.10.2019 13:00:00 18,4 12,4 18,8 15,3 17,5 26 14 49 26 S 1014,1 40 0,0
18.10.2019 12:00:00 18,2 12,6 18,0 15,3 17,6 32 17 54 29 SSW 1014,4 40 0,0
18.10.2019 11:00:00 17,4 12,7 17,0 15,2 17,6 29 15 46 25 S 1014,4 40 0,0
18.10.2019 10:00:00 16,7 12,8 16,1 15,2 17,6 26 14 46 25 S 1013,9 30 0,0
18.10.2019 09:00:00 16,4 12,7 15,0 15,2 17,6 29 16 46 25 S 1013,9 30 0,0
18.10.2019 08:00:00 15,8 12,5 14,2 15,2 17,6 24 13 45 25 S 1013,8 30 0,0
18.10.2019 07:00:00 15,0 13,5 14,1 15,2 17,6 13 7 33 18 SE 1013,7 15 1,8
18.10.2019 06:00:00 15,4 13,2 13,8 15,3 17,6 21 11 34 19 S 1013,8 7 1,6
18.10.2019 05:00:00 14,8 12,1 13,8 15,3 17,6 13 7 26 14 SE 1014,1 40 0,0
18.10.2019 04:00:00 15,1 12,4 13,7 15,4 17,7 17 9 30 16 SE 1014,4 30 0,0
18.10.2019 03:00:00 15,5 13,0 14,8 15,5 17,7 14 8 25 14 SE 1015,0 30 0,0
18.10.2019 02:00:00 15,5 13,3 14,9 15,5 17,7 16 9 24 13 SE 1015,1 30 0,0
18.10.2019 01:00:00 16,7 13,2 15,8 15,5 17,7 18 10 42 23 S 1015,2 30 0,0
18.10.2019 00:00:00 17,3 12,6 16,7 15,5 17,7 28 15 47 25 S 1015,3 30 0,0
17.10.2019 23:00:00 17,5 13,2 16,4 15,5 17,7 27 14 46 25 SSW 1015,9 30 0,0
17.10.2019 22:00:00 17,3 12,8 15,6 15,5 17,7 24 13 41 22 S 1015,7 30 0,0
17.10.2019 21:00:00 16,8 13,1 14,6 15,5 17,7 17 9 28 15 S 1015,6 12 0,0
17.10.2019 20:00:00 16,5 13,4 14,5 15,5 17,7 8 5 18 10 S 1015,6 8 0,8
17.10.2019 19:00:00 17,4 13,1 16,3 15,5 17,7 8 4 15 8 S 1015,2 15 0,0
17.10.2019 18:00:00 17,3 13,0 15,6 15,4 17,7 9 5 27 15 SW 1015,1 20 0,0
17.10.2019 17:00:00 17,8 13,1 16,0 15,4 17,8 21 11 40 21 SSW 1015,1 20 0,2
17.10.2019 16:00:00 17,8 12,9 16,1 15,3 17,8 15 8 39 21 SSW 1015,2 25 0,0
17.10.2019 15:00:00 19,1 11,6 18,9 15,2 17,8 31 17 55 30 SSW 1014,7 25 0,0
17.10.2019 14:00:00 18,9 11,5 18,8 15,1 17,8 33 18 69 37 S 1014,7 50 0,0
17.10.2019 13:00:00 18,6 11,9 18,4 14,9 17,8 34 19 62 33 S 1014,8 26 0,0
17.10.2019 12:00:00 18,4 11,7 18,9 14,8 17,8 30 16 61 33 S 1015,2 50 0,0
17.10.2019 11:00:00 18,1 10,7 17,8 14,7 17,8 25 14 46 25 S 1015,4 50 0,0
17.10.2019 10:00:00 16,6 9,5 15,4 14,6 17,8 17 9 35 19 SE 1015,6 50 0,0
17.10.2019 09:00:00 14,8 8,9 12,9 14,7 17,8 17 9 29 16 SSE 1015,9 50 0,0
17.10.2019 08:00:00 13,4 8,7 11,9 14,8 17,8 13 7 23 12 SSE 1015,6 60 0,0
17.10.2019 07:00:00 12,8 8,9 12,1 14,9 17,9 15 8 25 14 SE 1015,5 50 0,0
17.10.2019 06:00:00 13,3 9,4 12,0 15,0 17,9 16 9 23 12 SE 1015,7 50 0,0
17.10.2019 05:00:00 14,4 9,2 13,4 15,0 17,9 14 8 26 14 SSE 1016,2 50 0,0
17.10.2019 04:00:00 15,5 9,8 14,9 15,1 17,9 16 9 35 19 S 1016,3 50 0,0
17.10.2019 03:00:00 16,0 9,9 15,1 15,1 17,9 22 12 39 21 S 1016,5 50 0,0
17.10.2019 02:00:00 15,9 9,1 15,1 15,2 17,9 25 13 37 20 S 1016,1 50 0,0
17.10.2019 01:00:00 15,7 8,9 14,9 15,2 17,9 14 8 37 20 S 1015,9 50 0,0
17.10.2019 00:00:00 15,8 8,8 15,2 15,3 17,9 22 12 36 20 S 1015,7 50 0,0
16.10.2019 23:00:00 16,0 8,7 15,3 15,4 17,9 24 13 40 22 S 1015,6 50 0,0
16.10.2019 22:00:00 16,0 9,0 15,3 15,5 18,0 24 13 49 26 S 1015,1 58 0,0
16.10.2019 21:00:00 16,1 9,0 15,2 15,6 18,0 26 14 48 26 S 1014,7 50 0,0
16.10.2019 20:00:00 16,2 8,7 11,5 15,7 18,0 24 13 42 23 S 1014,8 50 0,0
16.10.2019 19:00:00 16,5 7,9 14,4 15,8 18,0 16 9 28 15 SSE 1014,4 50 0,0
16.10.2019 18:00:00 18,4 7,5 18,0 15,7 18,0 15 8 24 13 S 1014,1 50 0,0
16.10.2019 17:00:00 18,8 7,2 20,0 15,6 18,0 16 9 29 16 S 1014,5 60 0,0
16.10.2019 16:00:00 19,0 6,8 21,1 15,3 18,0 20 11 30 16 S 1014,8 60 0,0
16.10.2019 15:00:00 18,8 6,9 20,7 15,0 18,0 16 9 31 17 S 1015,3 60 0,0
16.10.2019 14:00:00 18,0 7,4 19,0 14,6 18,0 18 10 31 17 S 1015,9 60 0,0
16.10.2019 13:00:00 16,1 9,5 17,1 14,3 18,1 16 9 25 13 SE 1017,1 60 0,0
16.10.2019 12:00:00 14,5 9,1 16,6 14,1 18,1 16 8 25 13 SE 1017,8 60 0,0
16.10.2019 11:00:00 12,6 8,7 14,8 14,0 18,0 16 9 21 11 SE 1018,4 50 0,0
16.10.2019 10:00:00 10,5 7,6 11,0 14,1 18,1 7 4 23 12 SSE 1019,1 40 0,0
16.10.2019 09:00:00 8,6 7,1 7,6 14,3 18,1 17 9 23 12 SE 1018,8 40 0,0
16.10.2019 08:00:00 8,4 7,0 7,2 14,4 18,1 7 4 16 9 SE 1018,5 40 0,0
16.10.2019 07:00:00 8,4 7,2 6,9 14,6 18,1 3 2 19 11 S 1018,6 40 0,0
16.10.2019 06:00:00 8,2 7,1 7,0 14,8 18,1 14 7 21 12 SSE 1018,6 30 0,0
16.10.2019 05:00:00 7,8 7,4 6,9 14,9 18,1 4 2 22 12 W 1018,8 10 0,0
16.10.2019 04:00:00 8,4 8,0 7,6 15,2 18,1 16 9 25 13 SE 1018,6 0,5 0,0
16.10.2019 03:00:00 8,9 8,6 6,4 15,4 18,1 8 4 15 8 S 1019,1 12 0,0
16.10.2019 02:00:00 9,2 8,3 7,0 15,6 18,1 3 2 18 10 SE 1018,9 25 0,0
16.10.2019 01:00:00 9,7 8,3 7,6 15,7 18,1 14 8 19 10 SE 1018,8 25 0,0
16.10.2019 00:00:00 10,4 9,0 9,7 15,9 18,1 13 7 23 13 SE 1018,5 25 0,0
15.10.2019 23:00:00 11,2 9,9 10,3 16,1 18,1 16 9 24 13 SE 1018,4 35 0,0
15.10.2019 22:00:00 10,8 9,7 10,1 16,3 18,1 14 7 19 11 SE 1017,9 50 0,0
15.10.2019 21:00:00 11,4 10,1 10,7 16,4 18,1 14 7 20 11 SSE 1017,6 50 0,0
15.10.2019 20:00:00 11,9 10,0 11,2 16,5 18,1 13 7 18 10 SSE 1016,9 50 0,0
15.10.2019 19:00:00 12,0 10,2 11,9 16,6 18,1 9 5 21 11 SE 1015,8 50 0,0
15.10.2019 18:00:00 12,7 10,4 12,8 16,6 18,1 9 5 15 8 E 1014,7 50 0,0
15.10.2019 17:00:00 12,4 9,9 11,2 16,6 18,1 5 3 17 9 NNW 1014,0 50 0,0
15.10.2019 16:00:00 11,1 8,8 10,9 16,6 18,1 17 9 45 24 NW 1013,3 40 3,2
15.10.2019 15:00:00 14,6 13,0 14,7 16,5 18,1 11 6 17 9 SE 1011,5 40 0,0
15.10.2019 14:00:00 13,8 12,0 13,4 16,4 18,1 4 2 9 5 S 1011,3 40 0,6
15.10.2019 13:00:00 13,4 12,5 13,4 16,4 18,1 7 4 10 5 SW 1011,9 20 0,8
15.10.2019 12:00:00 12,8 12,3 12,2 16,5 18,1 6 3 22 12 WSW 1011,9 10 1,8
15.10.2019 11:00:00 12,4 11,5 12,2 16,5 18,1 20 11 34 18 WNW 1011,1 2,0 3,2
15.10.2019 10:00:00 13,2 12,9 12,9 16,6 18,1 12 6 35 19 ESE 1010,0 10 3,8
15.10.2019 09:00:00 13,1 12,8 12,8 16,9 18,1 8 5 22 12 E 1010,5 2,6 10,0
15.10.2019 08:00:00 13,0 12,7 12,8 17,2 18,1 16 9 29 16 NNE 1008,3 3,5 9,9
15.10.2019 07:00:00 13,6 13,0 13,3 17,6 18,1 11 6 32 17 NNE 1010,2 1,5 12,9

tt = Température de l'air
td = dewpoint
tt 5cm = Température de l'air 5cm
tt -20cm = Température de l'air -20cm
tt -100cm = Température de l'air -100cm
ff = Vitesse du vent
fx = gusts
dd = Direction du vent
ppp = reduced air pressure
vv = visibility
rr = Quantités de précipitations

stations d'obs. à proximité